| time (UTC) | temp F | wind direction | speed knots | gust knots | rain 1hr in | rain 24hr in | rain mn in | humidity % | barometer mb |
| 20260503225030 | 56 | 357 | 2.6 | 5.2 | 0.00 | 1.13 | 0.10 | 99 | 1014.6 |
| 20260503224028 | 55 | 347 | 2.6 | 4.3 | 0.00 | 1.13 | 0.10 | 99 | 1014.5 |
| 20260503223025 | 55 | 352 | 1.7 | 3.5 | 0.00 | 1.12 | 0.09 | 99 | 1014.5 |
| 20260503222043 | 55 | 21 | 1.7 | 2.6 | 0.00 | 1.13 | 0.09 | 99 | 1014.5 |
| 20260503221020 | 54 | 34 | 1.7 | 2.6 | 0.00 | 1.13 | 0.09 | 99 | 1014.5 |
| 20260503220018 | 54 | 55 | 1.7 | 2.6 | 0.00 | 1.13 | 0.09 | 99 | 1014.4 |
| 20260503215035 | 53 | 63 | 1.7 | 2.6 | 0.00 | 1.13 | 0.09 | 99 | 1014.5 |
| 20260503214034 | 52 | 76 | 1.7 | 2.6 | 0.00 | 1.13 | 0.09 | 98 | 1014.4 |
| 20260503213031 | 52 | 47 | 1.7 | 1.7 | 0.00 | 1.13 | 0.09 | 98 | 1014.2 |
| 20260503212028 | 52 | 51 | 0.9 | 2.6 | 0.00 | 1.13 | 0.09 | 98 | 1014.2 |
| 20260503211026 | 52 | 48 | 0.9 | 1.7 | 0.00 | 1.13 | 0.09 | 98 | 1014.0 |
| 20260503210024 | 52 | 37 | 0.9 | 2.6 | 0.00 | 1.13 | 0.09 | 98 | 1014.0 |
| 20260503205021 | 52 | 47 | 1.7 | 3.5 | 0.00 | 1.13 | 0.09 | 98 | 1013.7 |
| 20260503204019 | 52 | 70 | 1.7 | 2.6 | 0.00 | 1.13 | 0.09 | 98 | 1013.6 |
| 20260503203017 | 53 | 70 | 1.7 | 2.6 | 0.00 | 1.13 | 0.09 | 98 | 1013.6 |
| 20260503202034 | 53 | 58 | 1.7 | 2.6 | 0.00 | 1.13 | 0.09 | 98 | 1013.7 |
| 20260503201032 | 53 | 53 | 0.9 | 2.6 | 0.00 | 1.13 | 0.09 | 98 | 1013.6 |
| 20260503200030 | 53 | 51 | 1.7 | 2.6 | 0.00 | 1.13 | 0.09 | 98 | 1013.5 |
| 20260503195027 | 53 | 45 | 1.7 | 2.6 | 0.00 | 1.13 | 0.09 | 98 | 1013.2 |
| 20260503194025 | 53 | 53 | 1.7 | 2.6 | 0.00 | 1.13 | 0.09 | 98 | 1013.3 |
| 20260503193022 | 53 | 51 | 1.7 | 2.6 | 0.00 | 1.13 | 0.09 | 98 | 1013.4 |
| 20260503192020 | 53 | 55 | 1.7 | 2.6 | 0.00 | 1.13 | 0.09 | 98 | 1013.2 |
| 20260503191017 | 53 | 54 | 1.7 | 2.6 | 0.00 | 1.13 | 0.09 | 98 | 1013.0 |
| 20260503190035 | 53 | 42 | 0.9 | 2.6 | 0.00 | 1.13 | 0.09 | 98 | 1013.0 |
| 20260503185033 | 54 | 61 | 2.6 | 3.5 | 0.00 | 1.13 | 0.09 | 98 | 1013.0 |
| 20260503184051 | 54 | 35 | 2.6 | 5.2 | 0.00 | 1.13 | 0.09 | 98 | 1013.1 |
| 20260503183028 | 54 | 40 | 1.7 | 3.5 | 0.00 | 1.13 | 0.09 | 98 | 1013.3 |
| 20260503182025 | 54 | 10 | 0.9 | 2.6 | 0.00 | 1.13 | 0.09 | 98 | 1013.3 |
| 20260503181023 | 54 | 44 | 0.9 | 1.7 | 0.02 | 1.13 | 0.09 | 98 | 1013.0 |
| 20260503180021 | 54 | 81 | 1.7 | 2.6 | 0.05 | 1.13 | 0.09 | 98 | 1012.8 |
| 20260503175018 | 54 | 47 | 1.7 | 2.6 | 0.05 | 1.13 | 0.09 | 98 | 1013.0 |
| 20260503174016 | 54 | 82 | 1.7 | 2.6 | 0.05 | 1.13 | 0.09 | 98 | 1013.0 |
| 20260503173033 | 54 | 53 | 0.9 | 1.7 | 0.06 | 1.13 | 0.09 | 98 | 1013.2 |
| 20260503172031 | 54 | 45 | 1.7 | 2.6 | 0.05 | 1.13 | 0.09 | 98 | 1013.2 |
| 20260503171029 | 54 | 353 | 1.7 | 3.5 | 0.04 | 1.11 | 0.07 | 98 | 1013.5 |
| 20260503131031 | 58 | 205 | 2.6 | 7.0 | 0.06 | 1.03 | 1.03 | 97 | 1013.5 |
| 20260503081019 | 63 | 261 | 3.5 | 5.2 | 0.05 | 0.08 | 0.08 | 91 | 1013.5 |
| 20260503072048 | 67 | 337 | 4.3 | 8.7 | 0.00 | 0.03 | 0.03 | 80 | 1012.5 |
| 20260503071025 | 67 | 325 | 5.2 | 12.2 | 0.00 | 0.03 | 0.03 | 80 | 1012.4 |
| 20260503055026 | 68 | 355 | 7.0 | 13.9 | 0.00 | 0.03 | 0.03 | 78 | 1011.7 |
| 20260503054023 | 68 | 354 | 7.0 | 13.9 | 0.00 | 0.03 | 0.03 | 77 | 1011.5 |
| 20260503053021 | 69 | 355 | 7.8 | 14.8 | 0.00 | 0.03 | 0.03 | 74 | 1011.5 |
| 20260503052018 | 69 | 13 | 7.0 | 14.8 | 0.00 | 0.03 | 0.03 | 73 | 1011.7 |
| 20260503051016 | 69 | 358 | 7.0 | 13.9 | 0.00 | 0.03 | 0.03 | 73 | 1012.0 |
| 20260503050034 | 69 | 355 | 6.1 | 10.4 | 0.00 | 0.03 | 0.03 | 73 | 1012.1 |
| 20260503045031 | 69 | 355 | 6.1 | 15.6 | 0.00 | 0.03 | 0.03 | 72 | 1012.2 |
| 20260503044029 | 70 | 355 | 6.1 | 13.9 | 0.00 | 0.03 | 0.03 | 71 | 1012.4 |
| 20260503043026 | 70 | 337 | 7.8 | 15.6 | 0.00 | 0.03 | 0.03 | 70 | 1012.4 |
| 20260503042024 | 71 | 349 | 6.1 | 11.3 | 0.00 | 0.03 | 0.03 | 69 | 1012.4 |
| 20260503041021 | 71 | 349 | 7.0 | 13.0 | 0.00 | 0.03 | 0.03 | 66 | 1012.4 |
| 20260503040019 | 72 | 337 | 7.0 | 13.0 | 0.00 | 0.03 | 0.03 | 65 | 1012.6 |
| 20260503035017 | 73 | 341 | 7.8 | 16.5 | 0.00 | 0.03 | 0.03 | 63 | 1012.7 |
| 20260503034035 | 73 | 342 | 7.0 | 14.8 | 0.00 | 0.03 | 0.03 | 62 | 1012.6 |
| 20260503033032 | 73 | 329 | 6.1 | 13.0 | 0.00 | 0.03 | 0.03 | 61 | 1012.6 |
| 20260503032030 | 73 | 341 | 7.0 | 13.0 | 0.00 | 0.03 | 0.03 | 60 | 1012.7 |
| 20260503031027 | 74 | 340 | 7.0 | 13.0 | 0.00 | 0.03 | 0.03 | 59 | 1012.7 |
| 20260503030025 | 74 | 343 | 7.8 | 14.8 | 0.00 | 0.03 | 0.03 | 60 | 1012.8 |
| 20260503025023 | 74 | 342 | 8.7 | 14.8 | 0.00 | 0.03 | 0.03 | 60 | 1012.9 |
| 20260503024101 | 74 | 334 | 7.0 | 14.8 | 0.00 | 0.03 | 0.03 | 60 | 1012.9 |
| 20260503023018 | 73 | 4 | 5.2 | 11.3 | 0.00 | 0.03 | 0.03 | 62 | 1013.0 |
| 20260503022036 | 72 | 355 | 6.1 | 12.2 | 0.00 | 0.03 | 0.03 | 63 | 1013.1 |
| 20260503021033 | 72 | 3 | 5.2 | 11.3 | 0.00 | 0.03 | 0.03 | 63 | 1013.3 |
| 20260503020051 | 72 | 348 | 8.7 | 16.5 | 0.00 | 0.03 | 0.03 | 63 | 1013.5 |
| 20260503015028 | 72 | 340 | 6.1 | 13.9 | 0.00 | 0.03 | 0.03 | 65 | 1013.6 |
| 20260503014026 | 70 | 352 | 6.1 | 15.6 | 0.00 | 0.03 | 0.03 | 68 | 1013.7 |
| 20260503013023 | 70 | 3 | 4.3 | 10.4 | 0.00 | 0.03 | 0.03 | 69 | 1013.8 |
| 20260503012041 | 70 | 357 | 6.1 | 13.0 | 0.00 | 0.03 | 0.03 | 69 | 1013.9 |
| 20260503011039 | 71 | 356 | 8.7 | 14.8 | 0.00 | 0.03 | 0.03 | 64 | 1014.0 |
| 20260503010037 | 71 | 358 | 8.7 | 16.5 | 0.00 | 0.03 | 0.03 | 64 | 1014.0 |
| 20260503005034 | 70 | 4 | 8.7 | 17.4 | 0.00 | 0.03 | 0.03 | 65 | 1014.0 |
| 20260503004032 | 69 | 359 | 7.8 | 16.5 | 0.00 | 0.03 | 0.03 | 66 | 1014.2 |
| 20260503003030 | 69 | 347 | 6.1 | 14.8 | 0.00 | 0.03 | 0.03 | 68 | 1014.4 |
| 20260503002027 | 68 | 3 | 7.0 | 13.9 | 0.01 | 0.03 | 0.03 | 69 | 1014.6 |
| 20260503001045 | 68 | 359 | 7.0 | 13.9 | 0.02 | 0.03 | 0.03 | 70 | 1014.7 |
| 20260503000022 | 67 | 22 | 6.1 | 13.0 | 0.02 | 0.03 | 0.03 | 72 | 1014.8 |
| 20260502235019 | 66 | 8 | 6.1 | 13.0 | 0.02 | 0.03 | 0.03 | 74 | 1014.7 |
| 20260502234017 | 66 | 25 | 7.8 | 13.9 | 0.02 | 0.03 | 0.03 | 76 | 1014.9 |
| 20260502233035 | 65 | 2 | 4.3 | 7.0 | 0.02 | 0.03 | 0.03 | 78 | 1015.2 |
| 20260502232033 | 66 | 352 | 5.2 | 9.6 | 0.02 | 0.02 | 0.02 | 76 | 1015.3 |
| 20260502231030 | 66 | 2 | 4.3 | 9.6 | 0.01 | 0.01 | 0.01 | 74 | 1015.4 |
| 20260502230048 | 66 | 2 | 5.2 | 12.2 | 0.01 | 0.01 | 0.01 | 75 | 1015.4 |